Regional Weather Roundup
Issued by NWS Cleveland, OH

Home | Current Version | Previous Version | Graphics & Text | Print | Product List | Glossary On
Versions: 1 2 3 4 5 6 7 8 9 10 11 12 13 14 15 16 17 18 19 20 21 22 23 24 25 26 27 28 29 30 31 32 33 34 35 36 37 38 39 40 41 42 43 44 45 46 47 48 49 50
000
ASUS41 KCLE 232010
RWRCLE
OHIO REGIONAL WEATHER ROUNDUP
NATIONAL WEATHER SERVICE WILMINGTON, OH
400 PM EDT THU OCT 23 2014

NOTE: "FAIR" INDICATES FEW OR NO CLOUDS BELOW 12,000 FEET WITH NO
SIGNIFICANT WEATHER AND/OR OBSTRUCTIONS TO VISIBILITY.

OHZ001>008-015>018-024>027-034-035-043-044-232100-
   NORTHWEST OHIO

CITY           SKY/WX    TMP DP  RH WIND       PRES   REMARKS
DEFIANCE       SUNNY     57  38  48 CALM      30.15F
FINDLAY        SUNNY     58  42  55 N5        30.15F
TOLEDO EXPRESS SUNNY     57  39  51 W7        30.15F
TOLEDO METCALF MOSUNNY   58  40  51 W3        30.16F
LIMA           SUNNY     58  41  53 CALM      30.16F
$$

OHZ009>014-019>023-028>033-038-089-232100-
   NORTHEAST OHIO

CITY           SKY/WX    TMP DP  RH WIND       PRES   REMARKS
CLE-HOPKINS    MOSUNNY   55  42  61 NW7       30.17F
CLE-LAKEFRONT  MOSUNNY   54  46  74 NW9       30.15F
CUY CO. ARPT   PTSUNNY   54  48  82 NW9       30.16S
LORAIN-ELYRIA  SUNNY     55  43  63 N10       30.16F
ASHTABULA      MOSUNNY   56  44  64 NW10      30.12F
AKRON-CANTON   MOSUNNY   59  44  57 N12       30.12S
WOOSTER        SUNNY     59  43  55 NW9       30.13F
MANSFIELD      SUNNY     57  42  57 VRB6      30.14F
YOUNGSTOWN     MOSUNNY   58  43  57 NW15      30.09F
$$

OHZ042-051>053-060>062-070>072-077>081-232100-
  SOUTHWEST OHIO

CITY           SKY/WX    TMP DP  RH WIND       PRES   REMARKS
CINC-COVINGTON MOSUNNY   61  39  44 CALM      30.15
CINC-LUNKEN    SUNNY     60  41  49 CALM      30.16F
HAMILTON       SUNNY     61  41  47 CALM      30.17F
DAYTON         MOSUNNY   60  40  47 NW3       30.16F
WRIGHT-PAT AFB MOSUNNY   59  40  49 S3        30.15F
DAYTON GENERAL SUNNY     58  40  51 CALM      30.15F
WILMINGTON     SUNNY     59  39  47 NW3       30.15F
$$

OHZ036-037-039>041-045>050-054>059-063>069-073>076-082>088-232100-
  CENTRAL AND SOUTHEAST OHIO

CITY           SKY/WX    TMP DP  RH WIND       PRES   REMARKS
COLUMBUS       MOSUNNY   58  42  55 W6        30.14F
OSU AIRPORT    SUNNY     58  41  53 VRB6      30.14F
BOLTON FIELD   SUNNY     57  43  58 N6        30.15F
RICKENBACK AFB SUNNY     57  41  55 W3        30.13F
NEWARK         SUNNY     60  41  49 VRB6      30.12F
MARION         SUNNY     56  41  57 MISG      30.15F
LANCASTER      SUNNY     60  42  51 NW7       30.14F
ZANESVILLE     SUNNY     60  41  49 VRB6      30.12F
NEW PHILLY     PTSUNNY   59  44  57 NW10      30.13S
$$



USA.gov is the U.S. government's official web portal to all federal, state and local government web resources and services.